This is the latest recevied weather packets stored in our database for station/object WA6ODQ-13. If no packets are shown the sender has not sent any weather packets the latest 10 day(s).
| Time | Temp. | Humidity | Pressure | Rain* | Wind** | Luminosity | Snow |
|---|---|---|---|---|---|---|---|
| 1778104363 | 25.56° C | 51% | 1017.1 hPa | 0 mm | - | 672 W/m² | - |
| 1778104059 | 26.11° C | 51% | 1017.2 hPa | 0 mm | - | 690 W/m² | - |
| 1778103757 | 26.67° C | 50% | 1017.1 hPa | 0 mm | - | 684 W/m² | - |
| 1778103455 | 26.11° C | 55% | 1017.2 hPa | 0 mm | - | 699 W/m² | - |
| 1778103151 | 25.56° C | 52% | 1017.3 hPa | 0 mm | - | 707 W/m² | - |
| 1778102849 | 26.11° C | 50% | 1017.4 hPa | 0 mm | - | 732 W/m² | - |
| 1778102544 | 25.56° C | 51% | 1017.4 hPa | 0 mm | - | 728 W/m² | - |
| 1778102240 | 25.56° C | 52% | 1017.4 hPa | 0 mm | - | 749 W/m² | - |
| 1778101936 | 25° C | 54% | 1017.4 hPa | 0 mm | - | 805 W/m² | - |
| 1778101633 | 25.56° C | 53% | 1017.3 hPa | 0 mm | - | 325 W/m² | - |
| 1778101330 | 25° C | 53% | 1017.5 hPa | 0 mm | - | 783 W/m² | - |
| 1778101028 | 25° C | 54% | 1017.3 hPa | 0 mm | - | 810 W/m² | - |
| 1778100728 | 24.44° C | 54% | 1017.6 hPa | 0 mm | - | 828 W/m² | - |
| 1778100425 | 24.44° C | 55% | 1017.6 hPa | 0 mm | - | 384 W/m² | - |
| 1778100123 | 25° C | 54% | 1017.6 hPa | 0 mm | - | 429 W/m² | - |
| 1778099821 | 23.89° C | 56% | 1017.6 hPa | 0 mm | - | 965 W/m² | - |
| 1778099517 | 23.89° C | 60% | 1017.9 hPa | 0 mm | - | 433 W/m² | - |
| 1778099215 | 23.89° C | 55% | 1017.7 hPa | 0 mm | - | 460 W/m² | - |
| 1778098911 | 23.89° C | 55% | 1017.9 hPa | 0 mm | - | 467 W/m² | - |
| 1778098608 | 23.33° C | 58% | 1017.9 hPa | 0 mm | - | 430 W/m² | - |
| 1778098304 | 22.78° C | 58% | 1017.8 hPa | 0 mm | - | 426 W/m² | - |
| 1778098001 | 22.78° C | 59% | 1018 hPa | 0 mm | - | 414 W/m² | - |
| 1778097698 | 23.33° C | 57% | 1017.9 hPa | 0 mm | - | 469 W/m² | - |
| 1778097395 | 23.33° C | 57% | 1018 hPa | 0 mm | - | 476 W/m² | - |
| 1778097091 | 22.78° C | 59% | 1018.3 hPa | 0 mm | - | 424 W/m² | - |
* Rain latest hour (hover to see other rain measurements)
** Current wind speed in m/s (hover to see current wind gust speed)